Portada
METAR-TAF:

METAR-TAF

Aeropuertos :

Lawrence Municipal Airport

Lawrence, Kansas, Estados Unidos

latitud: 39-00-30N, longitud: 095-12-42W, altitud: 253 m

Observación

El informe se hizo hace 16 minutos, a las 14:52 UTC
Viento 8 kt del oeste-noroeste
Temperatura 2°C
Humedad 80%
Presión 1021 hPa
Visibilidad: 16.1 km
Cielo despejado

METAR: KLWC 281452Z AUTO 30008KT 10SM CLR 02/M01 A3016 RMK AO2 SLP219 I3000 T00221006 53002

Hora: 09:08 (15:08 UTC)


TAF: falta

Observaciones y pronósticos meteorológicos de más de 4000 aeropuertos (mensajes METAR y TAF).

Los puntos amarillos y rojos representan las estaciones disponibles.

Ponga el ratón en el punto deseado para ver el nombre de la estación.

Haga clic para ver las observaciones y los pronósticos meteorológicos.

Para cambiar el mapa : haga clic en los botones verdes con una cruz de color negro para hacer un zoom, en el botón verde con un guión para alejar o en las flechas verdes para mapas adyacentes.


METAR-TAF: